Content
SEND FEEDBACK

Daily
Averages
Monthly
Summary
United States of America

ST. LOUIS, MISSOURI


Home > North America > United States > Missouri
Elevation: 535 feet     Latitude: 38 45N     Longitude: 090 22W

WEATHER
 
SELECT A DAY
Number of Records: 196,364;   Date Range: 1/1/95 - 7/26/14
 
SHARE

PRINT THIS DATA

[ ← Previous Day ]
WEATHER ALMANAC - FEBRUARY 6, 2013
[ Next Day → ]
[ °C ]   °F
Weather ElementAverageHighLow
Temperature39.6 °F53.1 °F (2:54 pm)23 °F (6:54 am)
Dewpoint26.7 °F30 °F (9:54 am)19.9 °F (6:54 am)
Humidity63.6 %93 % (1:54 am)35 % (2:54 pm)
Barometer30.15 in30.25 in (9:54 am)30.06 in (10:54 pm)
Wind Speed4.7 mph11.5 mph (1:54 pm)
Weather ElementAverage
Visibility8.9 mi
Wind DirectionE (92.2 °)

Weather ElementTotal
Precipitation---
Heating Degree Days27 (Base 65)
Averaged from 23 records on February 6, 2013
WEATHER CONDITIONS BREAKOUT
WIND DIRECTION BREAKOUT
WEATHER BY HOUR - FEBRUARY 6, 2013
[ °C ]   °F
Local TimeTemperatureDewpointHumidityBarometerVisibilityWind DirectionWind SpeedGust SpeedPrecipitationEventsConditions
1:54 AM26.6 °F24.8 °F93 %30.16 in10.0 miCalmClear
2:54 AM26.1 °F23.0 °F88 %30.17 in9.0 miCalmClear
3:54 AM25.0 °F21.9 °F88 %30.18 in9.0 miWest (260°)3.5 mphClear
4:54 AM24.1 °F21.9 °F91 %30.19 in5.0 miCalmClear
5:54 AM25.0 °F21.9 °F88 %30.20 in4.0 miCalmClear
6:54 AM23.0 °F19.9 °F88 %30.21 in7.0 miCalmClear
7:54 AM27.0 °F24.1 °F89 %30.23 in4.0 miCalmClear
8:54 AM32.0 °F28.9 °F88 %30.24 in6.0 miCalmClear
9:54 AM42.1 °F30.0 °F62 %30.25 in10.0 miSouth (190°)5.8 mphClear
10:54 AM45.0 °F28.9 °F53 %30.25 in10.0 miSSE (150°)9.2 mphClear
11:54 AM48.0 °F28.9 °F48 %30.23 in10.0 miSouth (170°)4.6 mphClear
12:54 PM50.0 °F28.0 °F43 %30.18 in10.0 miEast (90°)9.2 mphClear
1:54 PM52.0 °F28.0 °F40 %30.14 in10.0 miESE (110°)11.5 mphClear
2:54 PM53.1 °F26.1 °F35 %30.13 in10.0 miSE (140°)10.4 mphClear
3:54 PM53.1 °F27.0 °F37 %30.12 in10.0 miESE (120°)8.1 mphClear
4:54 PM50.0 °F28.9 °F44 %30.12 in10.0 miESE (120°)4.6 mphMostly Cloudy
5:54 PM48.9 °F28.9 °F46 %30.09 in10.0 miESE (110°)9.2 mphClear
6:54 PM46.9 °F28.9 °F50 %30.09 in10.0 miESE (120°)5.8 mphClear
7:54 PM46.0 °F28.9 °F51 %30.09 in10.0 miSE (140°)5.8 mphClear
8:54 PM45.0 °F28.9 °F53 %30.09 in10.0 miSE (130°)3.5 mphClear
9:54 PM45.0 °F28.9 °F53 %30.08 in10.0 miSE (130°)4.6 mphClear
10:54 PM39.9 °F28.9 °F65 %30.06 in10.0 miNE (40°)5.8 mphClear
11:54 PM37.9 °F28.9 °F70 %30.06 in10.0 miEast (100°)5.8 mphClear
Hourly data recorded from KSUS, located miles away from St. Louis, Missouri







STORIES FROM OUR PARTNERS